Change the Weather History Date:

Sunday, March 10, 2013

  Actual Average Record
Temperature  
Mean Temperature 38 °F 39 °F  
Max Temperature 59 °F 52 °F 73 °F (2015)
Min Temperature 17 °F 25 °F 5 °F (2009)
Degree Days  
Heating Degree Days 27 26  
Month to date heating degree days 280 272  
Since 1 July heating degree days 4929 5006  
Cooling Degree Days 0 0  
Month to date cooling degree days 0 0  
Year to date cooling degree days 0 0  
Moisture  
Dew Point 7 °F    
Average Humidity 38    
Maximum Humidity 67    
Minimum Humidity 8    
Precipitation  
Precipitation 0.00 in 0.03 in 0.29 in (1952)
Month to date precipitation 0.03 0.25  
Year to date precipitation 0.81 1.66  
Sea Level Pressure  
Sea Level Pressure 30.39 in    
Wind  
Wind Speed 7 mph (SSW)    
Max Wind Speed 13 mph    
Max Gust Speed 17 mph    
T = Trace of Precipitation, MM = Missing Value Source: NWS Daily Summary

Daily Weather History Graph

Daily Weather History Graph

Search for Another Location

Airport or City:

Trip Planner

Search our weather history database for the weather conditions in past years. The results will help you decide how hot, cold, wet, or windy it might be!

Date:

Astronomy

Mar. 10, 2013 Rise Set
Actual Time 7:11 AM PDT 6:52 PM PDT
Civil Twilight 6:43 AM PDT 7:20 PM PDT
Nautical Twilight 6:10 AM PDT 7:53 PM PDT
Astronomical Twilight 5:37 AM PDT 8:26 PM PDT
Moon 6:14 AM PDT (3/10) 6:05 PM PDT (3/10)
Length of Visible Light 12h 37m
Length of Day
11h 40m
Waning Crescent, 1% of the Moon is Illuminated
Mar 10
Waning Crescent
Mar 11
New
Mar 19
First Quarter
Mar 27
Full
Apr 2
Last Quarter

Hourly Weather History & Observations

Time (PDT) Temp. Windchill Dew Point Humidity Pressure Visibility Wind Dir Wind Speed Gust Speed Precip Events Conditions
12:52 AM 21.9 °F 13.4 °F 10.0 °F 60% 30.44 in - SE 6.9 mph - N/A   Unknown
1:52 AM 24.1 °F 13.7 °F 10.0 °F 55% 30.44 in - SE 10.4 mph - N/A   Unknown
3:52 AM 24.1 °F 13.1 °F 10.9 °F 57% 30.43 in - SE 11.5 mph - N/A   Unknown
4:52 AM 18.0 °F 8.7 °F 9.0 °F 68% 30.46 in - SW 6.9 mph - N/A   Unknown
5:52 AM 21.0 °F 14.6 °F 10.0 °F 63% 30.45 in - SW 4.6 mph - N/A   Unknown
7:52 AM 24.1 °F 16.0 °F 12.9 °F 62% 30.49 in - South 6.9 mph - N/A   Unknown
8:52 AM 33.1 °F - 14.0 °F 46% 30.49 in - Calm Calm - N/A   Unknown
9:52 AM 41.0 °F 38.0 °F 15.1 °F 35% 30.48 in - South 4.6 mph - N/A   Unknown
10:52 AM 46.0 °F 43.1 °F 14.0 °F 28% 30.43 in - Variable 5.8 mph - N/A   Unknown
11:52 AM 48.9 °F - 10.0 °F 21% 30.40 in - Calm Calm - N/A   Unknown
12:52 PM 53.1 °F - 3.0 °F 13% 30.40 in - West 5.8 mph - N/A   Unknown
1:52 PM 55.0 °F - 1.9 °F 12% 30.37 in - WSW 9.2 mph - N/A   Unknown
2:52 PM 57.0 °F - 3.0 °F 11% 30.35 in - WSW 11.5 mph - N/A   Unknown
3:52 PM 57.9 °F - 1.0 °F 10% 30.33 in - West 8.1 mph - N/A   Unknown
4:52 PM 59.0 °F - -2.9 °F 8% 30.33 in - WSW 9.2 mph - N/A   Unknown
5:52 PM 55.9 °F - -2.0 °F 9% 30.32 in - WSW 4.6 mph - N/A   Unknown
6:52 PM 50.0 °F - 3.0 °F 15% 30.36 in - NW 6.9 mph - N/A   Unknown
7:52 PM 45.0 °F 42.6 °F 3.0 °F 18% 30.36 in - SSW 4.6 mph - N/A   Unknown
8:52 PM 39.9 °F 35.1 °F 6.1 °F 25% 30.35 in - SSE 6.9 mph - N/A   Unknown
9:52 PM 41.0 °F 34.7 °F 7.0 °F 25% 30.33 in - SE 10.4 mph - N/A   Unknown
10:52 PM 37.0 °F 30.4 °F 8.1 °F 30% 30.32 in - SE 9.2 mph - N/A   Unknown
11:52 PM 37.9 °F 30.5 °F 10.0 °F 32% 30.30 in - SE 11.5 mph - N/A   Unknown
12:52 AM 34.0 °F 28.0 °F 10.0 °F 37% 30.30 in - South 6.9 mph - N/A   Unknown